Regional Weather Roundup
Issued by NWS Midland/Odessa, TX

Home | Current Version | Previous Version | Text Only | Print | Product List | Glossary On
Versions: 1 2 3 4 5 6 7 8 9 10 11 12 13 14 15 16 17 18 19 20 21 22 23 24 25 26 27 28 29 30 31 32 33 34 35 36 37 38 39 40 41 42 43 44 45 46 47 48 49 50
000
ASUS44 KMAF 281510
RWRMAF
MIDLAND AREA WEATHER ROUNDUP
NATIONAL WEATHER SERVICE MIDLAND TX
1000 AM CDT THU JUL 28 2016

...IN SOUTHWEST TEXAS AND SOUTHEAST NEW MEXICO...

CITY           SKY/WX    TMP DP  RH WIND       PRES   REMARKS
ALPINE         SUNNY     79  58  49 NE6       30.21R
ANDREWS        FAIR      80  64  58 CALM      30.12R
ARTESIA        SUNNY     79  61  53 N9        30.15S
BIG SPRING     SUNNY     81  66  61 S9        30.12R
CARLSBAD       SUNNY     80  61  52 NW7       30.11R
DRYDEN           N/A     78  71  79 E8        30.04R
FORT STOCKTON  SUNNY     78  65  63 SE10      30.09R
GUAD PASS      SUNNY     78  56  46 E16       30.25R
HOBBS          SUNNY     81  63  54 CALM      30.15S
MARFA          SUNNY     79  59  50 NE12G18   30.19R
MIDLAND AIRPK  SUNNY     82  65  57 SE6       30.10S
MIDLAND INTL   SUNNY     81  65  58 S8        30.10R
ODESSA         SUNNY     80  64  58 S8        30.11R
PECOS          SUNNY     82  65  56 E8        30.07R
PRESIDIO       FAIR      84  65  52 NE10      30.04S
SEMINOLE       SUNNY     82  63  52 NW5       30.13S
SNYDER           N/A     82  67  60 W7        30.09S
WINK           SUNNY     81  65  58 E8        30.07R
$$
...OTHER STATIONS IN TEXAS...

CITY           SKY/WX    TMP DP  RH WIND       PRES   REMARKS
ABILENE        SUNNY     83  69  62 SW14      30.07S
AMARILLO       SUNNY     77  61  57 E10       30.17S
AUSTIN         PTSUNNY   83  77  82 SW6       30.02S
BROWNSVILLE    MOSUNNY   90  75  61 SE17      29.97R HX 100
CORPUS CHRISTI PTSUNNY   88  78  72 S15       29.99S HX 101
DALLAS FTW     PTSUNNY   84  71  65 SW10      29.99F
DEL RIO        CLOUDY    82  72  71 E9        30.00R
EL PASO        MOSUNNY   83  58  42 N6        30.12R
HOUSTON INT    CLOUDY    87  78  74 S5        30.02R HX 100
LUBBOCK        MOSUNNY   82  59  45 NE9       30.14S
SAN ANGELO     CLOUDY    79  69  71 VRB6      30.06F
SAN ANTONIO    PTSUNNY   83  75  77 S13       30.03S
WACO           CLOUDY    81  73  76 SW10      30.02S
WICHITA FALLS  NOT AVBL
$$
...OTHER LOCATIONS IN NEW MEXICO...

CITY           SKY/WX    TMP DP  RH WIND       PRES   REMARKS
ALAMAGORDO     NOT AVBL
ALBUQUERQUE    MOSUNNY   77  54  44 NW3       30.27R
CANNON AFB     NOT AVBL
CLOVIS         SUNNY     79  55  44 NE10      30.21S
HOLLOMAN AFB   SUNNY     84  54  35 NW6       30.13R
ROSWELL        SUNNY     78  59  51 N8        30.15R
RUIDOSO          N/A     70  54  56 S3        30.38R
SANTA FE       SUNNY     75  51  43 S6        30.33S
TRUTH OR CONSE SUNNY     78  56  46 N6        30.20R
TUCUMCARI      SUNNY     74  57  55 VRB5      30.19S
$$




USA.gov is the U.S. government's official web portal to all federal, state and local government web resources and services.